Time,TemperatureF,DewpointF,PressureIn,WindDirection,WindDirectionDegrees,WindSpeedMPH,WindSpeedGustMPH,Humidity,HourlyPrecipIn,Conditions,Clouds,dailyrainin,SoftwareType,DateUTC
2013-04-09 00:12:00,22.0,-99.9,-100.00,North,-999,-999.0,-999.0,-999,0.00,,,0.08,,2013-04-09 06:12:00,
2013-04-09 00:22:00,22.0,-99.9,-100.00,North,-999,-999.0,-999.0,-999,0.00,,,0.08,,2013-04-09 06:22:00,
2013-04-09 00:33:00,22.0,-99.9,-100.00,North,-999,-999.0,-999.0,-999,0.00,,,0.08,,2013-04-09 06:33:00,
2013-04-09 00:42:00,22.0,-99.9,-100.00,North,-999,-999.0,-999.0,-999,0.00,,,0.08,,2013-04-09 06:42:00,
2013-04-09 01:13:00,22.0,-99.9,-100.00,North,-999,-999.0,-999.0,-999,0.00,,,0.08,,2013-04-09 07:13:00,
2013-04-09 01:22:00,22.0,-99.9,-100.00,North,-999,-999.0,-999.0,-999,0.00,,,0.08,,2013-04-09 07:22:00,
2013-04-09 01:33:00,22.0,-99.9,-100.00,North,-999,-999.0,-999.0,-999,0.00,,,0.08,,2013-04-09 07:33:00,
2013-04-09 01:42:00,22.0,-99.9,-100.00,North,-999,-999.0,-999.0,-999,0.00,,,0.08,,2013-04-09 07:42:00,
2013-04-09 02:13:00,20.0,-99.9,-100.00,North,-999,-999.0,-999.0,-999,0.01,,,-99.99,,2013-04-09 08:13:00,
2013-04-09 02:22:00,20.0,-99.9,-100.00,North,-999,-999.0,-999.0,-999,0.01,,,-99.99,,2013-04-09 08:22:00,
2013-04-09 02:32:00,20.0,-99.9,-100.00,North,-999,-999.0,-999.0,-999,0.01,,,-99.99,,2013-04-09 08:32:00,
2013-04-09 02:43:00,20.0,-99.9,-100.00,North,-999,-999.0,-999.0,-999,0.01,,,-99.99,,2013-04-09 08:43:00,
2013-04-09 03:13:00,19.0,-99.9,-100.00,North,-999,-999.0,-999.0,-999,0.01,,,0.10,,2013-04-09 09:13:00,
2013-04-09 03:23:00,19.0,-99.9,-100.00,North,-999,-999.0,-999.0,-999,0.01,,,0.10,,2013-04-09 09:23:00,
2013-04-09 03:33:00,19.0,-99.9,-100.00,North,-999,-999.0,-999.0,-999,0.01,,,0.10,,2013-04-09 09:33:00,
2013-04-09 03:44:00,19.0,-99.9,-100.00,North,-999,-999.0,-999.0,-999,0.01,,,0.10,,2013-04-09 09:44:00,
2013-04-09 04:13:00,19.0,-99.9,-100.00,North,-999,-999.0,-999.0,-999,0.00,,,0.10,,2013-04-09 10:13:00,
2013-04-09 04:24:00,19.0,-99.9,-100.00,North,-999,-999.0,-999.0,-999,0.00,,,0.10,,2013-04-09 10:24:00,
2013-04-09 04:33:00,19.0,-99.9,-100.00,North,-999,-999.0,-999.0,-999,0.00,,,0.10,,2013-04-09 10:33:00,
2013-04-09 04:43:00,19.0,-99.9,-100.00,North,-999,-999.0,-999.0,-999,0.00,,,0.10,,2013-04-09 10:43:00,
2013-04-09 05:12:00,19.0,-99.9,-100.00,North,-999,-999.0,-999.0,-999,0.00,,,0.10,,2013-04-09 11:12:00,
2013-04-09 05:22:00,19.0,-99.9,-100.00,North,-999,-999.0,-999.0,-999,0.00,,,0.10,,2013-04-09 11:22:00,
2013-04-09 05:33:00,19.0,-99.9,-100.00,North,-999,-999.0,-999.0,-999,0.00,,,0.10,,2013-04-09 11:33:00,
2013-04-09 05:43:00,19.0,-99.9,-100.00,North,-999,-999.0,-999.0,-999,0.00,,,0.10,,2013-04-09 11:43:00,
2013-04-09 06:12:00,18.0,-99.9,-100.00,North,-999,-999.0,-999.0,-999,0.00,,,0.10,,2013-04-09 12:12:00,
2013-04-09 06:22:00,18.0,-99.9,-100.00,North,-999,-999.0,-999.0,-999,0.00,,,0.10,,2013-04-09 12:22:00,
2013-04-09 06:33:00,18.0,-99.9,-100.00,North,-999,-999.0,-999.0,-999,0.00,,,0.10,,2013-04-09 12:33:00,
2013-04-09 06:43:00,18.0,-99.9,-100.00,North,-999,-999.0,-999.0,-999,0.00,,,0.10,,2013-04-09 12:43:00,
2013-04-09 07:13:00,16.0,-99.9,-100.00,North,-999,-999.0,-999.0,-999,0.00,,,0.10,,2013-04-09 13:13:00,
2013-04-09 07:23:00,16.0,-99.9,-100.00,North,-999,-999.0,-999.0,-999,0.00,,,0.10,,2013-04-09 13:23:00,
2013-04-09 07:33:00,16.0,-99.9,-100.00,North,-999,-999.0,-999.0,-999,0.00,,,0.10,,2013-04-09 13:33:00,
2013-04-09 07:43:00,16.0,-99.9,-100.00,North,-999,-999.0,-999.0,-999,0.00,,,0.10,,2013-04-09 13:43:00,
2013-04-09 08:22:00,18.0,-99.9,-100.00,North,-999,-999.0,-999.0,-999,0.00,,,0.10,,2013-04-09 14:22:00,
2013-04-09 08:33:00,18.0,-99.9,-100.00,North,-999,-999.0,-999.0,-999,0.00,,,0.10,,2013-04-09 14:33:00,
2013-04-09 08:43:00,18.0,-99.9,-100.00,North,-999,-999.0,-999.0,-999,0.00,,,0.10,,2013-04-09 14:43:00,
2013-04-09 09:13:00,20.0,-99.9,-100.00,North,-999,-999.0,-999.0,-999,0.00,,,0.10,,2013-04-09 15:13:00,
2013-04-09 09:23:00,20.0,-99.9,-100.00,North,-999,-999.0,-999.0,-999,0.00,,,0.10,,2013-04-09 15:23:00,
2013-04-09 09:35:00,20.0,-99.9,-100.00,North,-999,-999.0,-999.0,-999,0.00,,,0.10,,2013-04-09 15:35:00,
2013-04-09 09:44:00,20.0,-99.9,-100.00,North,-999,-999.0,-999.0,-999,0.00,,,0.10,,2013-04-09 15:44:00,
2013-04-09 10:14:00,23.0,-99.9,-100.00,North,-999,-999.0,-999.0,-999,0.00,,,0.10,,2013-04-09 16:14:00,
2013-04-09 10:24:00,23.0,-99.9,-100.00,North,-999,-999.0,-999.0,-999,0.00,,,0.10,,2013-04-09 16:24:00,
2013-04-09 10:34:00,23.0,-99.9,-100.00,North,-999,-999.0,-999.0,-999,0.00,,,0.10,,2013-04-09 16:34:00,
2013-04-09 10:43:00,23.0,-99.9,-100.00,North,-999,-999.0,-999.0,-999,0.00,,,0.10,,2013-04-09 16:43:00,
2013-04-09 11:13:00,27.0,-99.9,-100.00,North,-999,-999.0,-999.0,-999,0.00,,,0.10,,2013-04-09 17:13:00,
2013-04-09 11:24:00,27.0,-99.9,-100.00,North,-999,-999.0,-999.0,-999,0.00,,,0.10,,2013-04-09 17:24:00,
2013-04-09 11:33:00,27.0,-99.9,-100.00,North,-999,-999.0,-999.0,-999,0.00,,,0.10,,2013-04-09 17:33:00,
2013-04-09 11:43:00,27.0,-99.9,-100.00,North,-999,-999.0,-999.0,-999,0.00,,,0.10,,2013-04-09 17:43:00,
2013-04-09 12:13:00,29.0,-99.9,-100.00,North,-999,-999.0,-999.0,-999,-99.99,,,-99.99,,2013-04-09 18:13:00,
2013-04-09 12:23:00,29.0,-99.9,-100.00,North,-999,-999.0,-999.0,-999,-99.99,,,-99.99,,2013-04-09 18:23:00,
2013-04-09 12:34:00,29.0,-99.9,-100.00,North,-999,-999.0,-999.0,-999,-99.99,,,-99.99,,2013-04-09 18:34:00,
2013-04-09 12:44:00,29.0,-99.9,-100.00,North,-999,-999.0,-999.0,-999,-99.99,,,-99.99,,2013-04-09 18:44:00,
2013-04-09 15:34:00,33.0,-99.9,-100.00,North,-999,-999.0,-999.0,-999,-99.99,,,-99.99,,2013-04-09 21:34:00,
2013-04-09 15:43:00,33.0,-99.9,-100.00,North,-999,-999.0,-999.0,-999,-99.99,,,-99.99,,2013-04-09 21:43:00,
2013-04-09 16:13:00,36.0,-99.9,-100.00,North,-999,-999.0,-999.0,-999,0.00,,,0.03,,2013-04-09 22:13:00,
2013-04-09 16:34:00,36.0,-99.9,-100.00,North,-999,-999.0,-999.0,-999,0.00,,,0.03,,2013-04-09 22:34:00,
2013-04-09 16:43:00,36.0,-99.9,-100.00,North,-999,-999.0,-999.0,-999,0.00,,,0.03,,2013-04-09 22:43:00,
2013-04-09 17:13:00,37.0,-99.9,-100.00,North,-999,-999.0,-999.0,-999,0.00,,,0.01,,2013-04-09 23:13:00,
2013-04-09 17:23:00,37.0,-99.9,-100.00,North,-999,-999.0,-999.0,-999,0.00,,,0.01,,2013-04-09 23:23:00,
2013-04-09 17:33:00,37.0,-99.9,-100.00,North,-999,-999.0,-999.0,-999,0.00,,,0.01,,2013-04-09 23:33:00,
2013-04-09 17:43:00,37.0,-99.9,-100.00,North,-999,-999.0,-999.0,-999,0.00,,,0.01,,2013-04-09 23:43:00,
2013-04-09 18:23:00,37.0,-99.9,-100.00,North,-999,-999.0,-999.0,-999,0.00,,,0.00,,2013-04-10 00:23:00,
2013-04-09 18:33:00,37.0,-99.9,-100.00,North,-999,-999.0,-999.0,-999,0.00,,,0.00,,2013-04-10 00:33:00,
2013-04-09 18:43:00,37.0,-99.9,-100.00,North,-999,-999.0,-999.0,-999,0.00,,,0.00,,2013-04-10 00:43:00,
2013-04-09 19:13:00,36.0,-99.9,-100.00,North,-999,-999.0,-999.0,-999,0.00,,,0.00,,2013-04-10 01:13:00,
2013-04-09 19:23:00,36.0,-99.9,-100.00,North,-999,-999.0,-999.0,-999,0.00,,,0.00,,2013-04-10 01:23:00,
2013-04-09 19:33:00,36.0,-99.9,-100.00,North,-999,-999.0,-999.0,-999,0.00,,,0.00,,2013-04-10 01:33:00,
2013-04-09 19:43:00,36.0,-99.9,-100.00,North,-999,-999.0,-999.0,-999,0.00,,,0.00,,2013-04-10 01:43:00,
2013-04-09 20:13:00,33.0,-99.9,-100.00,North,-999,-999.0,-999.0,-999,0.00,,,0.00,,2013-04-10 02:13:00,
2013-04-09 20:23:00,33.0,-99.9,-100.00,North,-999,-999.0,-999.0,-999,0.00,,,0.00,,2013-04-10 02:23:00,
2013-04-09 20:33:00,33.0,-99.9,-100.00,North,-999,-999.0,-999.0,-999,0.00,,,0.00,,2013-04-10 02:33:00,
2013-04-09 20:43:00,33.0,-99.9,-100.00,North,-999,-999.0,-999.0,-999,0.00,,,0.00,,2013-04-10 02:43:00,
2013-04-09 21:13:00,31.0,-99.9,-100.00,North,-999,-999.0,-999.0,-999,0.00,,,0.00,,2013-04-10 03:13:00,
2013-04-09 21:22:00,31.0,-99.9,-100.00,North,-999,-999.0,-999.0,-999,0.00,,,0.00,,2013-04-10 03:22:00,
2013-04-09 21:33:00,31.0,-99.9,-100.00,North,-999,-999.0,-999.0,-999,0.00,,,0.00,,2013-04-10 03:33:00,
2013-04-09 21:43:00,31.0,-99.9,-100.00,North,-999,-999.0,-999.0,-999,0.00,,,0.00,,2013-04-10 03:43:00,
2013-04-09 22:13:00,28.0,-99.9,-100.00,North,-999,-999.0,-999.0,-999,0.00,,,0.01,,2013-04-10 04:13:00,
2013-04-09 22:23:00,28.0,-99.9,-100.00,North,-999,-999.0,-999.0,-999,0.00,,,0.01,,2013-04-10 04:23:00,
2013-04-09 22:33:00,28.0,-99.9,-100.00,North,-999,-999.0,-999.0,-999,0.00,,,0.01,,2013-04-10 04:33:00,
2013-04-09 22:43:00,28.0,-99.9,-100.00,North,-999,-999.0,-999.0,-999,0.00,,,0.01,,2013-04-10 04:43:00,
2013-04-09 23:13:00,26.0,-99.9,-100.00,North,-999,-999.0,-999.0,-999,0.00,,,0.01,,2013-04-10 05:13:00,
2013-04-09 23:23:00,26.0,-99.9,-100.00,North,-999,-999.0,-999.0,-999,0.00,,,0.01,,2013-04-10 05:23:00,
2013-04-09 23:34:00,26.0,-99.9,-100.00,North,-999,-999.0,-999.0,-999,0.00,,,0.01,,2013-04-10 05:34:00,
2013-04-09 23:43:00,26.0,-99.9,-100.00,North,-999,-999.0,-999.0,-999,0.00,,,0.01,,2013-04-10 05:43:00,